• In Hungary
  • List of Countries
  • For 7 days
  • Water Temperature
  • Satellite Maps
  • Weather Map
  • News
  • Weather Widgets
  • user-avatar
    Login

    Hourly Weather Stanylya

    Today, 24 June, Sunday

    Time Temperature Precipitation Wind Pressure Humidity
    00:00 +8°C° 0 mm 3 mps 730 mmHg 94%
    01:00 +7°C° 0 mm 3 mps 731 mmHg 94%
    02:00 +7°C° 0 mm 3 mps 731 mmHg 94%
    03:00 +7°C° 0 mm 3 mps 731 mmHg 94%
    04:00 +7°C° 0 mm 3 mps 731 mmHg 94%
    05:00 +7°C° 0 mm 3 mps 731 mmHg 94%
    06:00 +8°C° 0 mm 3 mps 731 mmHg 91%
    07:00 +10°C° 0 mm 3 mps 731 mmHg 88%
    08:00 +12°C° 0 mm 4 mps 731 mmHg 84%
    09:00 +13°C° 0.1 mm 4 mps 731 mmHg 80%
    10:00 +14°C° 0.1 mm 4 mps 731 mmHg 75%
    11:00 +15°C° 0.1 mm 4 mps 731 mmHg 71%
    12:00 +15°C° 0.5 mm 4 mps 731 mmHg 73%
    13:00 +15°C° 0.5 mm 4 mps 731 mmHg 75%
    14:00 +15°C° 0.5 mm 5 mps 731 mmHg 77%
    15:00 +17°C° 0.3 mm 4 mps 731 mmHg 75%
    16:00 +17°C° 0.3 mm 4 mps 731 mmHg 73%
    17:00 +17°C° 0.3 mm 3 mps 730 mmHg 70%
    18:00 +16°C° 0.3 mm 3 mps 730 mmHg 77%
    19:00 +15°C° 0.3 mm 2 mps 730 mmHg 83%
    20:00 +14°C° 0.3 mm 1 mps 730 mmHg 89%
    21:00 +13°C° 0.1 mm 1 mps 730 mmHg 90%
    22:00 +12°C° 0.1 mm 1 mps 731 mmHg 92%
    23:00 +11°C° 0.1 mm 1 mps 731 mmHg 93%

    Tomorrow, 25 June, Monday

    Time Temperature Precipitation Wind Pressure Humidity
    00:00 +11°C° 0 mm 1 mps 731 mmHg 93%
    01:00 +10°C° 0 mm 1 mps 731 mmHg 93%
    02:00 +9°C° 0 mm 2 mps 731 mmHg 93%
    03:00 +9°C° 0 mm 2 mps 731 mmHg 94%
    04:00 +10°C° 0 mm 1 mps 731 mmHg 94%
    05:00 +10°C° 0 mm 1 mps 731 mmHg 94%
    06:00 +11°C° 0.1 mm 1 mps 732 mmHg 91%
    07:00 +13°C° 0.1 mm 1 mps 732 mmHg 89%
    08:00 +14°C° 0.1 mm 1 mps 732 mmHg 87%
    09:00 +15°C° 0.4 mm 1 mps 732 mmHg 84%
    10:00 +16°C° 0.4 mm 1 mps 733 mmHg 81%
    11:00 +18°C° 0.4 mm 1 mps 733 mmHg 78%
    12:00 +19°C° 0.6 mm 1 mps 733 mmHg 76%
    13:00 +19°C° 0.6 mm 1 mps 733 mmHg 75%
    14:00 +20°C° 0.6 mm 1 mps 732 mmHg 73%
    15:00 +20°C° 0.4 mm 1 mps 732 mmHg 72%
    16:00 +20°C° 0.4 mm 1 mps 732 mmHg 72%
    17:00 +20°C° 0.4 mm 1 mps 732 mmHg 71%
    18:00 +19°C° 0.2 mm 1 mps 732 mmHg 76%
    19:00 +16°C° 0.2 mm 0 mps 733 mmHg 81%
    20:00 +14°C° 0.2 mm 0 mps 733 mmHg 86%
    21:00 +13°C° 0.2 mm 0 mps 733 mmHg 88%
    22:00 +12°C° 0.2 mm 0 mps 733 mmHg 89%
    23:00 +11°C° 0.2 mm 0 mps 733 mmHg 91%

    Day after tomorrow, 26 June, Tuesday

    Time Temperature Precipitation Wind Pressure Humidity
    00:00 +11°C° 0 mm 0 mps 733 mmHg 91%
    01:00 +11°C° 0 mm 0 mps 733 mmHg 91%
    02:00 +10°C° 0 mm 0 mps 733 mmHg 92%
    03:00 +10°C° 0 mm 0 mps 733 mmHg 92%
    04:00 +10°C° 0 mm 0 mps 733 mmHg 93%
    05:00 +10°C° 0 mm 0 mps 733 mmHg 93%
    06:00 +13°C° 0 mm 1 mps 734 mmHg 89%
    07:00 +15°C° 0 mm 1 mps 734 mmHg 85%
    08:00 +18°C° 0 mm 1 mps 734 mmHg 81%
    09:00 +19°C° 0.1 mm 1 mps 734 mmHg 75%
    10:00 +20°C° 0.1 mm 1 mps 734 mmHg 69%
    11:00 +21°C° 0.1 mm 2 mps 734 mmHg 63%
    12:00 +21°C° 0.2 mm 2 mps 734 mmHg 63%
    13:00 +21°C° 0.2 mm 2 mps 733 mmHg 64%
    14:00 +23°C° 0.2 mm 2 mps 733 mmHg 64%
    15:00 +21°C° 0.5 mm 2 mps 733 mmHg 67%
    16:00 +21°C° 0.5 mm 2 mps 733 mmHg 70%
    17:00 +21°C° 0.5 mm 2 mps 733 mmHg 73%
    18:00 +20°C° 0.2 mm 1 mps 733 mmHg 77%
    19:00 +19°C° 0.2 mm 1 mps 733 mmHg 81%
    20:00 +18°C° 0.2 mm 1 mps 733 mmHg 85%
    21:00 +16°C° 0 mm 1 mps 733 mmHg 87%
    22:00 +15°C° 0 mm 1 mps 733 mmHg 89%
    23:00 +14°C° 0 mm 1 mps 733 mmHg 91%

    27 June, Wednesday

    Time Temperature Precipitation Wind Pressure Humidity
    00:00 +13°C° 0 mm 1 mps 733 mmHg 91%
    01:00 +13°C° 0 mm 1 mps 733 mmHg 91%
    02:00 +13°C° 0 mm 1 mps 733 mmHg 92%
    03:00 +13°C° 0 mm 1 mps 733 mmHg 92%
    04:00 +13°C° 0 mm 1 mps 732 mmHg 92%
    05:00 +12°C° 0 mm 1 mps 732 mmHg 92%
    06:00 +14°C° 0 mm 1 mps 733 mmHg 88%
    07:00 +16°C° 0 mm 1 mps 733 mmHg 84%
    08:00 +19°C° 0 mm 1 mps 733 mmHg 80%
    09:00 +20°C° 0.2 mm 1 mps 733 mmHg 76%
    10:00 +21°C° 0.2 mm 1 mps 732 mmHg 71%
    11:00 +22°C° 0.2 mm 1 mps 732 mmHg 66%
    12:00 +21°C° 0.5 mm 2 mps 732 mmHg 69%
    13:00 +21°C° 0.5 mm 2 mps 732 mmHg 71%
    14:00 +21°C° 0.5 mm 2 mps 731 mmHg 74%
    15:00 +21°C° 0.6 mm 2 mps 731 mmHg 75%
    16:00 +21°C° 0.6 mm 2 mps 731 mmHg 75%
    17:00 +21°C° 0.6 mm 2 mps 731 mmHg 76%
    18:00 +21°C° 0.6 mm 1 mps 731 mmHg 81%
    19:00 +20°C° 0.6 mm 1 mps 730 mmHg 85%
    20:00 +18°C° 0.6 mm 1 mps 730 mmHg 90%
    21:00 +16°C° 0.1 mm 1 mps 730 mmHg 91%
    22:00 +16°C° 0.1 mm 1 mps 730 mmHg 93%
    23:00 +15°C° 0.1 mm 1 mps 730 mmHg 94%

    28 June, Thursday

    Time Temperature Precipitation Wind Pressure Humidity
    00:00 +15°C° 0.1 mm 1 mps 730 mmHg 94%
    01:00 +14°C° 0.1 mm 1 mps 729 mmHg 95%
    02:00 +14°C° 0.1 mm 1 mps 729 mmHg 95%
    03:00 +14°C° 0 mm 1 mps 729 mmHg 95%
    04:00 +14°C° 0 mm 1 mps 729 mmHg 96%
    05:00 +14°C° 0 mm 1 mps 728 mmHg 96%
    06:00 +15°C° 0 mm 1 mps 728 mmHg 93%
    07:00 +18°C° 0 mm 1 mps 728 mmHg 90%
    08:00 +19°C° 0 mm 1 mps 728 mmHg 88%
    09:00 +19°C° 0.2 mm 2 mps 728 mmHg 84%
    10:00 +20°C° 0.2 mm 2 mps 728 mmHg 81%
    11:00 +21°C° 0.2 mm 2 mps 727 mmHg 78%
    12:00 +21°C° 0.5 mm 2 mps 727 mmHg 78%
    13:00 +23°C° 0.5 mm 2 mps 727 mmHg 78%
    14:00 +23°C° 0.5 mm 2 mps 727 mmHg 78%
    15:00 +23°C° 0.4 mm 2 mps 727 mmHg 78%
    16:00 +23°C° 0.4 mm 2 mps 726 mmHg 77%
    17:00 +23°C° 0.4 mm 2 mps 726 mmHg 77%
    18:00 +22°C° 0.2 mm 1 mps 726 mmHg 81%
    19:00 +20°C° 0.2 mm 1 mps 726 mmHg 85%
    20:00 +19°C° 0.2 mm 1 mps 726 mmHg 90%
    21:00 +18°C° 0 mm 1 mps 726 mmHg 91%
    22:00 +16°C° 0 mm 1 mps 726 mmHg 93%
    23:00 +15°C° 0 mm 1 mps 726 mmHg 94%

    29 June, Friday

    Time Temperature Precipitation Wind Pressure Humidity
    00:00 +15°C° 0 mm 1 mps 726 mmHg 94%
    01:00 +14°C° 0 mm 1 mps 726 mmHg 94%
    02:00 +14°C° 0 mm 1 mps 726 mmHg 95%
    03:00 +14°C° 0 mm 1 mps 726 mmHg 94%
    04:00 +14°C° 0 mm 1 mps 726 mmHg 94%
    05:00 +13°C° 0 mm 1 mps 726 mmHg 94%
    06:00 +15°C° 0 mm 1 mps 726 mmHg 89%
    07:00 +18°C° 0 mm 1 mps 727 mmHg 84%
    08:00 +20°C° 0 mm 1 mps 727 mmHg 79%
    09:00 +20°C° 0.1 mm 2 mps 727 mmHg 71%
    10:00 +23°C° 0.1 mm 2 mps 727 mmHg 64%
    11:00 +24°C° 0.1 mm 3 mps 726 mmHg 57%
    12:00 +24°C° 0.1 mm 3 mps 726 mmHg 55%
    13:00 +25°C° 0.1 mm 3 mps 726 mmHg 53%
    14:00 +25°C° 0.1 mm 3 mps 726 mmHg 51%
    15:00 +25°C° 0 mm 3 mps 726 mmHg 53%
    16:00 +25°C° 0 mm 3 mps 726 mmHg 55%
    17:00 +25°C° 0 mm 3 mps 726 mmHg 57%
    18:00 +22°C° 0 mm 3 mps 726 mmHg 65%
    19:00 +20°C° 0 mm 3 mps 726 mmHg 72%
    20:00 +18°C° 0 mm 2 mps 725 mmHg 79%
    21:00 +17°C° 0 mm 2 mps 726 mmHg 83%
    22:00 +16°C° 0 mm 2 mps 726 mmHg 86%
    23:00 +15°C° 0 mm 2 mps 726 mmHg 90%
    Show more